| time (UTC) | temp C | wind direction | speed KPH | gust KPH | rain 1hr cm | rain 24hr cm | rain mn cm | humidity % | barometer mb |
| 20260509034656 | 22 | 262 | 0.0 | 1.6 | 0.00 | 0.00 | 0.00 | 89 | 1009.8 |
| 20260509033756 | 23 | 0 | 0.0 | 0.0 | 0.00 | 0.00 | 0.00 | 89 | 1009.7 |
| 20260509032856 | 23 | 0 | 0.0 | 0.0 | 0.00 | 0.00 | 0.00 | 89 | 1009.7 |
| 20260509031057 | 23 | 0 | 0.0 | 0.0 | 0.00 | 0.00 | 0.00 | 89 | 1009.8 |
| 20260509030157 | 23 | 0 | 0.0 | 0.0 | 0.00 | 0.00 | 0.00 | 89 | 1009.7 |
| 20260509025257 | 23 | 0 | 0.0 | 0.0 | 0.00 | 0.00 | 0.00 | 89 | 1009.6 |
| 20260509024356 | 23 | 0 | 0.0 | 0.0 | 0.00 | 0.00 | 0.00 | 89 | 1009.5 |
| 20260509023456 | 23 | 274 | 0.0 | 1.6 | 0.00 | 0.00 | 0.00 | 88 | 1009.3 |
| 20260509022556 | 23 | 274 | 0.0 | 3.2 | 0.00 | 0.00 | 0.00 | 88 | 1009.1 |
| 20260509021656 | 23 | 281 | 0.0 | 1.6 | 0.00 | 0.00 | 0.00 | 87 | 1009.0 |
| 20260509020757 | 23 | 281 | 1.6 | 3.2 | 0.00 | 0.00 | 0.00 | 87 | 1008.8 |
| 20260509015857 | 23 | 271 | 0.0 | 4.8 | 0.00 | 0.00 | 0.00 | 87 | 1008.6 |
| 20260509014957 | 23 | 274 | 0.0 | 1.6 | 0.00 | 0.00 | 0.00 | 87 | 1008.7 |
| 20260509014057 | 23 | 274 | 0.0 | 1.6 | 0.00 | 0.00 | 0.00 | 87 | 1008.7 |
| 20260509013157 | 23 | 0 | 0.0 | 0.0 | 0.00 | 0.00 | 0.00 | 86 | 1008.6 |
| 20260509012256 | 23 | 0 | 0.0 | 0.0 | 0.00 | 0.00 | 0.00 | 86 | 1008.5 |
| 20260509011356 | 23 | 275 | 0.0 | 1.6 | 0.00 | 0.00 | 0.00 | 85 | 1008.6 |
| 20260509010457 | 23 | 275 | 0.0 | 1.6 | 0.00 | 0.00 | 0.00 | 85 | 1008.5 |
| 20260509005557 | 24 | 270 | 1.6 | 4.8 | 0.00 | 0.00 | 0.00 | 85 | 1008.4 |
| 20260509004656 | 24 | 275 | 1.6 | 4.8 | 0.00 | 0.00 | 0.00 | 84 | 1008.4 |
| 20260509003757 | 24 | 277 | 1.6 | 4.8 | 0.00 | 0.00 | 0.00 | 84 | 1008.3 |
| 20260509001956 | 24 | 265 | 1.6 | 4.8 | 0.00 | 0.00 | 0.00 | 83 | 1008.3 |
| 20260509001056 | 24 | 280 | 1.6 | 4.8 | 0.00 | 0.00 | 0.00 | 83 | 1008.3 |
| 20260508235257 | 25 | 297 | 0.0 | 3.2 | 0.00 | 0.00 | 0.00 | 83 | 1008.3 |
| 20260508234357 | 25 | 259 | 1.6 | 3.2 | 0.00 | 0.00 | 0.00 | 83 | 1008.3 |
| 20260508233457 | 25 | 273 | 3.2 | 9.7 | 0.00 | 0.00 | 0.00 | 82 | 1008.3 |
| 20260508232557 | 25 | 289 | 1.6 | 9.7 | 0.00 | 0.00 | 0.00 | 82 | 1008.2 |
| 20260508231657 | 25 | 280 | 1.6 | 4.8 | 0.00 | 0.00 | 0.00 | 82 | 1008.3 |
| 20260508230756 | 25 | 266 | 1.6 | 4.8 | 0.00 | 0.00 | 0.00 | 83 | 1008.5 |
| 20260508225857 | 25 | 321 | 0.0 | 4.8 | 0.00 | 0.00 | 0.00 | 82 | 1008.5 |
| 20260508224957 | 25 | 257 | 1.6 | 4.8 | 0.00 | 0.00 | 0.00 | 82 | 1008.7 |
| 20260508223156 | 25 | 319 | 1.6 | 11.3 | 0.00 | 0.00 | 0.00 | 80 | 1008.7 |
| 20260508222257 | 25 | 280 | 3.2 | 6.4 | 0.00 | 0.00 | 0.00 | 81 | 1008.7 |
| 20260508221356 | 25 | 299 | 3.2 | 6.4 | 0.00 | 0.00 | 0.00 | 79 | 1008.8 |
| 20260508220456 | 25 | 327 | 1.6 | 8.0 | 0.00 | 0.00 | 0.00 | 78 | 1008.9 |
| 20260508215556 | 25 | 278 | 1.6 | 4.8 | 0.00 | 0.00 | 0.00 | 78 | 1008.8 |
| 20260508214657 | 25 | 331 | 1.6 | 4.8 | 0.00 | 0.00 | 0.00 | 79 | 1008.9 |
| 20260508213756 | 25 | 307 | 0.0 | 4.8 | 0.00 | 0.00 | 0.00 | 79 | 1008.9 |
| 20260508212856 | 25 | 280 | 1.6 | 4.8 | 0.00 | 0.00 | 0.00 | 79 | 1009.1 |
| 20260508211056 | 25 | 271 | 1.6 | 8.0 | 0.00 | 0.00 | 0.00 | 79 | 1009.3 |
| 20260508210156 | 25 | 300 | 1.6 | 6.4 | 0.00 | 0.00 | 0.00 | 78 | 1009.5 |
| 20260508205256 | 25 | 275 | 1.6 | 4.8 | 0.00 | 0.00 | 0.00 | 77 | 1009.4 |
| 20260508204356 | 25 | 295 | 1.6 | 8.0 | 0.00 | 0.00 | 0.00 | 77 | 1009.4 |
| 20260508203456 | 25 | 289 | 1.6 | 6.4 | 0.00 | 0.00 | 0.00 | 77 | 1009.6 |
| 20260508202556 | 25 | 271 | 1.6 | 4.8 | 0.00 | 0.00 | 0.00 | 78 | 1009.7 |
| 20260508201656 | 25 | 277 | 1.6 | 8.0 | 0.00 | 0.00 | 0.00 | 76 | 1010.0 |
| 20260508200756 | 25 | 294 | 1.6 | 6.4 | 0.00 | 0.00 | 0.00 | 76 | 1010.0 |
| 20260508195856 | 25 | 286 | 1.6 | 4.8 | 0.00 | 0.00 | 0.00 | 77 | 1010.1 |
| 20260508194956 | 25 | 288 | 1.6 | 6.4 | 0.00 | 0.00 | 0.00 | 76 | 1010.3 |
| 20260508194056 | 25 | 285 | 1.6 | 4.8 | 0.00 | 0.00 | 0.00 | 75 | 1010.2 |
| 20260508193156 | 25 | 282 | 1.6 | 8.0 | 0.00 | 0.00 | 0.00 | 76 | 1010.1 |
| 20260508192256 | 24 | 283 | 0.0 | 4.8 | 0.00 | 0.00 | 0.00 | 78 | 1010.3 |
| 20260508191357 | 23 | 272 | 1.6 | 3.2 | 0.00 | 0.00 | 0.00 | 78 | 1010.4 |
| 20260508190456 | 23 | 318 | 0.0 | 9.7 | 0.00 | 0.00 | 0.00 | 77 | 1010.8 |
| 20260508185556 | 22 | 5 | 0.0 | 3.2 | 0.00 | 0.00 | 0.00 | 79 | 1010.9 |
| 20260508184656 | 22 | 268 | 0.0 | 1.6 | 0.00 | 0.00 | 0.00 | 80 | 1010.9 |
| 20260508183756 | 22 | 324 | 0.0 | 3.2 | 0.00 | 0.00 | 0.00 | 80 | 1010.9 |
| 20260508182856 | 22 | 269 | 0.0 | 3.2 | 0.00 | 0.00 | 0.00 | 79 | 1011.2 |
| 20260508181956 | 22 | 267 | 0.0 | 3.2 | 0.00 | 0.00 | 0.00 | 79 | 1011.4 |
| 20260508181056 | 22 | 290 | 1.6 | 3.2 | 0.00 | 0.00 | 0.00 | 80 | 1011.5 |
| 20260508175256 | 22 | 306 | 0.0 | 3.2 | 0.00 | 0.00 | 0.00 | 79 | 1011.7 |
| 20260508174356 | 21 | 287 | 0.0 | 3.2 | 0.00 | 0.00 | 0.00 | 78 | 1011.7 |
| 20260508173456 | 21 | 270 | 0.0 | 3.2 | 0.00 | 0.00 | 0.00 | 80 | 1011.8 |
| 20260508172556 | 21 | 275 | 0.0 | 3.2 | 0.00 | 0.00 | 0.00 | 78 | 1012.0 |
| 20260508165856 | 20 | 286 | 0.0 | 1.6 | 0.00 | 0.00 | 0.00 | 80 | 1012.0 |
| 20260508164956 | 20 | 282 | 0.0 | 3.2 | 0.00 | 0.00 | 0.00 | 80 | 1012.0 |
| 20260508164056 | 20 | 181 | 0.0 | 3.2 | 0.00 | 0.00 | 0.00 | 81 | 1012.1 |
| 20260508163157 | 20 | 282 | 0.0 | 4.8 | 0.00 | 0.00 | 0.00 | 80 | 1012.2 |
| 20260508162256 | 20 | 279 | 1.6 | 4.8 | 0.00 | 0.00 | 0.00 | 80 | 1012.3 |
| 20260508161356 | 20 | 261 | 0.0 | 3.2 | 0.00 | 0.00 | 0.00 | 79 | 1012.5 |
| 20260508160456 | 20 | 121 | 0.0 | 3.2 | 0.00 | 0.00 | 0.00 | 81 | 1012.5 |
| 20260508155556 | 20 | 126 | 1.6 | 4.8 | 0.00 | 0.00 | 0.00 | 79 | 1012.8 |
| 20260508154656 | 20 | 133 | 1.6 | 6.4 | 0.00 | 0.00 | 0.00 | 79 | 1012.8 |
| 20260508152856 | 18 | 138 | 1.6 | 8.0 | 0.00 | 0.00 | 0.00 | 80 | 1012.9 |
| 20260508151956 | 18 | 127 | 0.0 | 4.8 | 0.00 | 0.00 | 0.00 | 81 | 1013.3 |
| 20260508151056 | 17 | 136 | 0.0 | 6.4 | 0.00 | 0.00 | 0.00 | 82 | 1013.5 |
| 20260508150156 | 17 | 89 | 0.0 | 3.2 | 0.00 | 0.00 | 0.00 | 83 | 1013.3 |
| 20260508145256 | 17 | 132 | 0.0 | 1.6 | 0.00 | 0.00 | 0.00 | 83 | 1013.4 |
| 20260508144356 | 17 | 126 | 0.0 | 3.2 | 0.00 | 0.00 | 0.00 | 83 | 1013.3 |
| 20260508143456 | 17 | 122 | 1.6 | 6.4 | 0.00 | 0.00 | 0.00 | 83 | 1013.4 |
| 20260508142556 | 17 | 141 | 0.0 | 8.0 | 0.00 | 0.00 | 0.00 | 83 | 1013.2 |
| 20260508141656 | 17 | 134 | 0.0 | 6.4 | 0.00 | 0.00 | 0.00 | 84 | 1013.4 |
| 20260508140756 | 17 | 170 | 0.0 | 3.2 | 0.00 | 0.00 | 0.00 | 84 | 1013.3 |
| 20260508135856 | 16 | 145 | 0.0 | 4.8 | 0.00 | 0.00 | 0.00 | 84 | 1013.2 |
| 20260508134956 | 16 | 144 | 0.0 | 3.2 | 0.00 | 0.00 | 0.00 | 84 | 1013.1 |
| 20260508134056 | 16 | 136 | 0.0 | 3.2 | 0.00 | 0.00 | 0.00 | 84 | 1013.3 |
| 20260508133156 | 16 | 125 | 0.0 | 3.2 | 0.00 | 0.00 | 0.00 | 85 | 1013.4 |
| 20260508132256 | 16 | 126 | 0.0 | 3.2 | 0.00 | 0.00 | 0.00 | 85 | 1013.4 |
| 20260508131356 | 16 | 130 | 0.0 | 3.2 | 0.00 | 0.00 | 0.00 | 85 | 1013.5 |
| 20260508124656 | 16 | 140 | 0.0 | 4.8 | 0.00 | 0.00 | 0.00 | 86 | 1013.5 |
| 20260508123756 | 16 | 151 | 1.6 | 6.4 | 0.00 | 0.00 | 0.00 | 86 | 1013.4 |
| 20260508122856 | 16 | 145 | 1.6 | 9.7 | 0.00 | 0.00 | 0.00 | 86 | 1013.1 |
| 20260508121957 | 16 | 141 | 0.0 | 8.0 | 0.00 | 0.00 | 0.00 | 86 | 1013.1 |
| 20260508120156 | 16 | 170 | 0.0 | 4.8 | 0.00 | 0.00 | 0.00 | 86 | 1013.0 |
| 20260508115256 | 16 | 146 | 0.0 | 4.8 | 0.00 | 0.00 | 0.00 | 86 | 1013.0 |
| 20260508114356 | 16 | 133 | 0.0 | 4.8 | 0.00 | 0.00 | 0.00 | 86 | 1013.1 |
| 20260508113456 | 16 | 140 | 1.6 | 8.0 | 0.00 | 0.00 | 0.00 | 85 | 1013.4 |
| 20260508111656 | 16 | 143 | 1.6 | 4.8 | 0.00 | 0.00 | 0.00 | 82 | 1014.2 |
| 20260508110756 | 16 | 142 | 1.6 | 6.4 | 0.00 | 0.00 | 0.00 | 81 | 1014.2 |
| 20260508104956 | 16 | 142 | 0.0 | 3.2 | 0.00 | 0.00 | 0.00 | 80 | 1013.8 |
| 20260508104056 | 16 | 138 | 0.0 | 4.8 | 0.00 | 0.00 | 0.00 | 80 | 1013.7 |
| 20260508102256 | 16 | 146 | 0.0 | 4.8 | 0.00 | 0.00 | 0.00 | 81 | 1013.3 |
| 20260508101356 | 16 | 145 | 0.0 | 6.4 | 0.00 | 0.00 | 0.00 | 81 | 1013.2 |
| 20260508100456 | 16 | 126 | 0.0 | 3.2 | 0.00 | 0.00 | 0.00 | 81 | 1013.3 |
| 20260508095556 | 16 | 174 | 0.0 | 3.2 | 0.00 | 0.00 | 0.00 | 81 | 1013.3 |
| 20260508094656 | 16 | 131 | 0.0 | 6.4 | 0.00 | 0.00 | 0.00 | 81 | 1013.2 |
| 20260508092856 | 16 | 155 | 0.0 | 6.4 | 0.00 | 0.00 | 0.00 | 81 | 1013.3 |
| 20260508091956 | 16 | 127 | 0.0 | 3.2 | 0.00 | 0.00 | 0.00 | 82 | 1013.6 |
| 20260508091056 | 16 | 122 | 1.6 | 3.2 | 0.00 | 0.00 | 0.00 | 81 | 1013.5 |
| 20260508090156 | 16 | 127 | 1.6 | 3.2 | 0.00 | 0.00 | 0.00 | 82 | 1013.9 |
| 20260508085256 | 16 | 134 | 0.0 | 4.8 | 0.00 | 0.00 | 0.00 | 83 | 1013.4 |
| 20260508084356 | 16 | 106 | 0.0 | 1.6 | 0.00 | 0.00 | 0.00 | 83 | 1013.5 |
| 20260508083456 | 16 | 133 | 0.0 | 4.8 | 0.00 | 0.00 | 0.00 | 83 | 1013.4 |
| 20260508082556 | 16 | 0 | 0.0 | 0.0 | 0.00 | 0.00 | 0.00 | 82 | 1013.1 |
| 20260508081656 | 16 | 112 | 0.0 | 3.2 | 0.00 | 0.00 | 0.00 | 81 | 1013.8 |
| 20260508080756 | 16 | 123 | 0.0 | 3.2 | 0.00 | 0.00 | 0.00 | 78 | 1013.8 |
| 20260508075856 | 16 | 127 | 0.0 | 3.2 | 0.00 | 0.00 | 0.00 | 78 | 1013.9 |
| 20260508074956 | 16 | 136 | 0.0 | 1.6 | 0.00 | 0.00 | 0.00 | 79 | 1013.9 |
| 20260508074056 | 16 | 123 | 0.0 | 1.6 | 0.00 | 0.00 | 0.00 | 78 | 1013.9 |
| 20260508073156 | 17 | 146 | 0.0 | 1.6 | 0.00 | 0.00 | 0.00 | 78 | 1014.1 |
| 20260508072256 | 17 | 137 | 0.0 | 3.2 | 0.00 | 0.00 | 0.00 | 78 | 1014.2 |
| 20260508071356 | 17 | 100 | 0.0 | 1.6 | 0.00 | 0.00 | 0.00 | 78 | 1014.2 |
| 20260508065556 | 17 | 156 | 0.0 | 6.4 | 0.00 | 0.00 | 0.00 | 77 | 1013.7 |
| 20260508064656 | 16 | 139 | 0.0 | 3.2 | 0.00 | 0.00 | 0.00 | 78 | 1013.6 |
| 20260508063756 | 17 | 162 | 0.0 | 1.6 | 0.00 | 0.00 | 0.00 | 78 | 1013.6 |
| 20260508061956 | 17 | 120 | 0.0 | 3.2 | 0.00 | 0.00 | 0.00 | 78 | 1014.4 |
| 20260508061056 | 17 | 0 | 0.0 | 0.0 | 0.00 | 0.00 | 0.00 | 78 | 1014.6 |
| 20260508060156 | 16 | 118 | 0.0 | 1.6 | 0.00 | 0.00 | 0.00 | 79 | 1014.5 |
| 20260508055256 | 16 | 117 | 0.0 | 1.6 | 0.00 | 0.00 | 0.00 | 78 | 1014.9 |
| 20260508054356 | 16 | 128 | 0.0 | 3.2 | 0.00 | 0.00 | 0.00 | 78 | 1014.9 |
| 20260508052556 | 16 | 122 | 1.6 | 4.8 | 0.00 | 0.00 | 0.00 | 78 | 1015.1 |
| 20260508051656 | 16 | 126 | 1.6 | 6.4 | 0.00 | 0.00 | 0.00 | 79 | 1014.8 |
| 20260508050756 | 16 | 145 | 1.6 | 8.0 | 0.00 | 0.00 | 0.00 | 79 | 1014.3 |
| 20260508045856 | 16 | 144 | 0.0 | 11.3 | 0.00 | 0.00 | 0.00 | 79 | 1014.3 |
| 20260508044956 | 16 | 146 | 0.0 | 3.2 | 0.00 | 0.00 | 0.00 | 79 | 1014.1 |
| 20260508044056 | 16 | 192 | 0.0 | 1.6 | 0.00 | 0.00 | 0.00 | 78 | 1013.5 |
| 20260508041356 | 16 | 141 | 0.0 | 3.2 | 0.00 | 0.00 | 0.00 | 78 | 1014.0 |
| 20260508035556 | 16 | 127 | 0.0 | 3.2 | 0.00 | 0.00 | 0.00 | 78 | 1014.7 |